Location: El Portezuelo
(28.4984°N, 16.3589°W)
Time: 19:20:56
(UTC+00:00)

METEOR-M - Pass Details

Date: 20 January 2020
Orbit: 816 x 819 km, 98.4° (Epoch: 16 February)

Event Time Altitude Azimuth Distance (km) Brightness Sun altitude
Rises 06:07:32 0° 14° (NNE) 3,349 7.4 -24.1°
Reaches altitude 10° 06:09:54 10° 16° (NNE) 2,413 6.6 -23.6°
Maximum altitude 06:15:15 77° 102° (ESE) 841 4.2 -22.5°
Drops below altitude 10° 06:20:33 10° 188° (S) 2,399 6.6 -21.3°
Sets 06:22:53 0° 190° (S) 3,328 7.3 -20.8°
